CW1852 Weather Reports


Display with metric or nautical units.
time (UTC)temp
F
wind
direction
speed
MPH
gust
MPH
rain 1hr
in
rain 24hr
in
rain mn
in
humidity
%
barometer
mb
20260502202204 46 179 0.0 3.0 0.00 0.03 0.03 94 1010.4
20260502201203 46 177 0.0 2.0 0.00 0.03 0.03 94 1010.4
20260502200202 46 177 1.0 6.0 0.00 0.03 0.03 94 1010.5
20260502195203 46 140 1.0 3.0 0.00 0.03 0.03 94 1010.5
20260502194202 46 130 1.0 4.0 0.00 0.03 0.03 94 1010.4
20260502193203 47 130 2.0 4.0 0.00 0.03 0.03 94 1010.6
20260502192204 46 130 0.0 3.0 0.00 0.03 0.03 94 1010.5
20260502191202 46 129 2.0 3.0 0.00 0.03 0.03 94 1010.7
20260502190204 45 129 0.0 2.0 0.00 0.03 0.03 94 1010.7
20260502185204 45 129 1.0 5.0 0.00 0.03 0.03 94 1011.2
20260502184202 45 158 5.0 9.0 0.00 0.03 0.03 93 1011.4
20260502183203 45 139 2.0 7.0 0.00 0.03 0.03 93 1011.4
20260502182202 46 135 3.0 7.0 0.00 0.03 0.03 93 1011.4
20260502181203 46 123 4.0 7.0 0.00 0.03 0.03 93 1011.2
20260502180203 45 122 3.0 5.0 0.00 0.03 0.03 93 1011.1
20260502170202 45 123 3.0 5.0 0.00 0.03 0.03 92 1011.1
20260502164203 45 117 3.0 8.0 0.00 0.03 0.03 91 1011.3
20260502163223 44 119 4.0 7.0 0.00 0.03 0.03 91 1011.2
20260502162224 44 122 5.0 8.0 0.00 0.03 0.03 90 1011.3
20260502161202 44 121 5.0 9.0 0.00 0.03 0.03 90 1011.4
20260502160203 44 116 3.0 7.0 0.00 0.03 0.03 90 1011.7
20260502152205 44 117 4.0 10.0 0.01 0.03 0.03 89 1012.2
20260502151224 44 92 4.0 11.0 0.00 0.02 0.02 87 1012.2
20260502150203 44 100 3.0 7.0 0.00 0.02 0.02 86 1012.5
20260502130203 45 106 2.0 3.0 0.00 0.00 0.00 86 1013.2
20260502123203 45 69 1.0 4.0 0.00 0.00 0.00 80 1013.2
20260502122202 46 77 2.0 3.0 0.00 0.00 0.00 81 1013.0
20260502121203 46 77 0.0 3.0 0.00 0.00 0.00 82 1012.9
20260502120203 45 77 1.0 3.0 0.00 0.00 0.00 81 1012.6
20260502115203 45 76 2.0 3.0 0.00 0.00 0.00 82 1012.6
20260502114203 45 124 1.0 2.0 0.00 0.00 0.00 83 1012.7
20260502113202 45 124 0.0 2.0 0.00 0.00 0.00 83 1012.6
20260502112203 45 124 1.0 4.0 0.00 0.00 0.00 84 1012.3
20260502111203 45 128 1.0 3.0 0.00 0.00 0.00 84 1012.1
20260502110203 45 139 2.0 4.0 0.00 0.00 0.00 84 1012.0
20260502105203 45 140 2.0 5.0 0.00 0.00 0.00 83 1012.2
20260502104202 45 142 2.0 3.0 0.00 0.00 0.00 83 1012.1
20260502103203 44 142 3.0 6.0 0.00 0.00 0.00 86 1012.1
20260502102203 42 142 3.0 5.0 0.00 0.00 0.00 90 1012.1
20260502101202 41 142 2.0 5.0 0.00 0.00 0.00 90 1012.0
20260502100245 40 142 1.0 3.0 0.00 0.00 0.00 90 1011.8
20260502091203 42 142 2.0 3.0 0.00 0.00 0.00 84 1012.1
20260502090203 42 142 1.0 3.0 0.00 0.00 0.00 86 1012.2
20260502071203 38 24 0.0 0.0 0.00 0.00 0.00 87 1011.2
20260502070203 38 24 0.0 1.0 0.00 0.00 0.00 88 1011.1
20260502065203 37 24 1.0 2.0 0.00 0.00 0.00 88 1011.0
20260502064224 37 24 0.0 2.0 0.00 0.00 0.00 88 1010.9
20260502063202 36 24 1.0 3.0 0.00 0.00 0.00 88 1010.8
20260502062203 36 9 1.0 3.0 0.00 0.00 0.00 87 1010.7
20260502061224 36 9 0.0 1.0 0.00 0.00 0.00 86 1010.9
20260502060202 36 9 0.0 1.0 0.00 0.00 0.00 86 1010.9
20260502055203 36 9 0.0 2.0 0.00 0.00 0.00 86 1010.8
20260502054202 36 9 0.0 2.0 0.00 0.00 0.00 84 1010.8
20260502053203 36 9 1.0 2.0 0.00 0.00 0.00 85 1010.7
20260502052203 37 9 0.0 0.0 0.00 0.00 0.00 85 1010.8
20260502051203 37 9 0.0 0.0 0.00 0.00 0.00 84 1010.8
20260502050203 37 9 0.0 1.0 0.00 0.00 0.00 84 1010.8
20260502045202 38 8 0.0 2.0 0.00 0.00 0.00 84 1010.7
20260502044203 38 8 1.0 2.0 0.00 0.00 0.00 82 1010.7
20260502043202 38 9 0.0 2.0 0.00 0.00 0.00 82 1010.6
20260502042203 38 9 0.0 2.0 0.00 0.00 0.00 83 1010.6
20260502041203 39 321 0.0 0.0 0.00 0.00 0.00 83 1010.6
20260502040203 39 320 0.0 1.0 0.00 0.00 0.00 83 1010.6
20260502035204 39 320 0.0 1.0 0.00 0.00 0.00 83 1010.5
20260502034202 40 320 0.0 1.0 0.00 0.00 0.00 83 1010.5
20260502033203 40 320 0.0 2.0 0.00 0.00 0.00 81 1010.6
20260502032202 41 320 1.0 2.0 0.00 0.00 0.00 79 1010.5
20260502031203 41 320 1.0 4.0 0.00 0.00 0.00 80 1010.4
20260502030223 42 320 1.0 3.0 0.00 0.00 0.00 78 1010.3
20260502025203 41 320 1.0 2.0 0.00 0.00 0.00 78 1010.3
20260502024204 42 320 2.0 2.0 0.00 0.00 0.00 78 1010.3
20260502023202 42 320 2.0 2.0 0.00 0.00 0.00 78 1010.2
20260502022203 42 320 1.0 2.0 0.00 0.00 0.00 78 1010.2
20260502021203 43 320 1.0 2.0 0.00 0.00 0.00 76 1010.1
20260502020224 43 321 0.0 1.0 0.00 0.00 0.00 73 1010.1
20260502015202 44 320 1.0 3.0 0.00 0.00 0.00 70 1010.2
20260502014203 45 319 2.0 4.0 0.00 0.00 0.00 68 1010.2
20260502013203 46 318 1.0 3.0 0.00 0.00 0.00 65 1010.1
20260502012203 47 328 2.0 5.0 0.00 0.00 0.00 62 1009.9
20260502011203 47 328 2.0 7.0 0.00 0.00 0.00 66 1009.8
20260502010224 47 323 1.0 5.0 0.00 0.00 0.00 63 1009.5
20260502005203 48 333 1.0 4.0 0.00 0.00 0.00 59 1009.3
20260502004202 50 333 1.0 5.0 0.00 0.00 0.00 55 1009.1
20260502003203 51 343 2.0 5.0 0.00 0.00 0.00 52 1008.9
20260502002223 53 332 3.0 8.0 0.00 0.00 0.00 46 1008.7
20260502001203 52 313 2.0 11.0 0.00 0.00 0.00 48 1008.5
20260501235203 54 335 2.0 8.0 0.00 0.00 0.00 46 1008.1
20260501234202 54 353 3.0 15.0 0.00 0.00 0.00 47 1007.8
20260501232203 52 324 0.0 5.0 0.00 0.00 0.00 69 1007.5
20260501231204 53 327 3.0 8.0 0.00 0.00 0.00 65 1007.1
20260501230203 53 226 1.0 4.0 0.00 0.00 0.00 65 1007.0
20260501225202 54 226 2.0 4.0 0.00 0.00 0.00 64 1006.8
20260501224203 54 226 1.0 4.0 0.00 0.00 0.00 64 1006.7
20260501223203 54 228 2.0 5.0 0.00 0.00 0.00 65 1006.5
20260501222203 53 228 1.0 4.0 0.00 0.00 0.00 66 1006.3
20260501221203 53 228 1.0 7.0 0.00 0.00 0.00 67 1006.2
20260501220202 53 247 2.0 7.0 0.00 0.00 0.00 66 1006.4
20260501215203 54 237 3.0 11.0 0.00 0.00 0.00 64 1006.3
20260501214203 54 236 2.0 9.0 0.00 0.00 0.00 65 1006.3
20260501213203 55 233 3.0 11.0 0.00 0.00 0.00 63 1006.2
20260501212203 55 210 5.0 11.0 0.00 0.00 0.00 62 1006.1
20260501211203 56 184 6.0 12.0 0.00 0.00 0.00 62 1006.0
20260501210203 57 205 4.0 13.0 0.00 0.00 0.00 64 1005.8
20260501205203 57 204 5.0 12.0 0.00 0.01 0.00 64 1005.8
20260501204223 56 205 6.0 12.0 0.00 0.01 0.00 63 1005.8